KC1HBM Weather Reports


Display with metric or nautical units.
time (UTC)temp
F
wind
direction
speed
MPH
gust
MPH
rain 1hr
in
rain 24hr
in
rain mn
in
humidity
%
barometer
mb
20260901192625 68 287 3.0 5.0 0.00 0.00 0.00 91 1015.9
20260901192120 68 299 3.0 3.0 0.00 0.00 0.00 90 1016.0
20260901191616 68 299 1.0 2.0 0.00 0.00 0.00 90 1016.2
20260901191113 68 297 1.0 1.0 0.00 0.00 0.00 91 1016.2
20260901190608 68 303 3.0 3.0 0.00 0.00 0.00 91 1016.1
20260901190108 68 304 1.0 2.0 0.00 0.00 0.00 91 1016.1
20260901185605 68 308 2.0 2.0 0.00 0.00 0.00 91 1016.3
20260901185104 68 301 0.0 0.0 0.00 0.00 0.00 90 1016.1
20260901184600 68 300 2.0 2.0 0.00 0.00 0.00 91 1016.1
20260901184055 68 312 2.0 3.0 0.00 0.00 0.00 90 1016.1
20260901183550 68 298 1.0 2.0 0.00 0.00 0.00 89 1015.9
20260901183045 69 291 3.0 5.0 0.00 0.00 0.00 87 1015.8
20260901182542 69 302 2.0 2.0 0.00 0.00 0.00 88 1015.9
20260901182041 70 294 0.0 0.0 0.00 0.00 0.00 87 1015.8
20260901181540 70 305 1.0 2.0 0.00 0.00 0.00 86 1016.0
20260901181035 70 300 0.0 1.0 0.00 0.00 0.00 85 1015.9
20260901180533 71 309 1.0 2.0 0.00 0.00 0.00 84 1015.8
20260901180029 71 299 2.0 3.0 0.00 0.00 0.00 81 1015.8
20260901175522 71 298 2.0 2.0 0.00 0.00 0.00 82 1015.6
20260901175017 71 307 3.0 3.0 0.00 0.00 0.00 81 1015.7
20260901174513 72 288 2.0 2.0 0.00 0.00 0.00 79 1015.6
20260901174009 72 305 1.0 1.0 0.00 0.00 0.00 80 1015.7
20260901173503 72 294 2.0 2.0 0.00 0.00 0.00 79 1015.8
20260901172959 71 310 1.0 1.0 0.00 0.00 0.00 78 1015.5
20260901172454 72 311 0.0 0.0 0.00 0.00 0.00 77 1015.5
20260901171952 71 304 0.0 0.0 0.00 0.00 0.00 81 1015.8
20260901171451 71 313 0.0 0.0 0.00 0.00 0.00 79 1015.6
20260901170950 71 309 1.0 1.0 0.00 0.00 0.00 79 1015.7
20260901170445 71 306 1.0 1.0 0.00 0.00 0.00 78 1015.7
20260901165944 71 307 0.0 1.0 0.00 0.00 0.00 79 1015.9
20260901165439 71 305 1.0 1.0 0.00 0.00 0.00 79 1015.7
20260901164935 72 302 1.0 1.0 0.00 0.00 0.00 79 1015.7
20260901164430 71 312 0.0 0.0 0.00 0.00 0.00 75 1015.6
20260901163925 71 312 0.0 0.0 0.00 0.00 0.00 79 1015.6
20260901163420 71 299 1.0 2.0 0.00 0.00 0.00 77 1015.8
20260901162919 71 306 0.0 1.0 0.00 0.00 0.00 75 1015.8
20260901162414 71 301 1.0 2.0 0.00 0.00 0.00 79 1016.0
20260901161914 70 302 1.0 2.0 0.00 0.00 0.00 78 1015.7
20260901161413 71 309 0.0 0.0 0.00 0.00 0.00 79 1015.8
20260901160908 71 309 0.0 0.0 0.00 0.00 0.00 77 1015.9
20260901160404 70 305 1.0 1.0 0.00 0.00 0.00 78 1016.0
20260901155903 69 293 2.0 2.0 0.00 0.00 0.00 80 1016.0
20260901155358 70 293 2.0 2.0 0.00 0.00 0.00 77 1016.2
20260901154855 69 312 0.0 1.0 0.00 0.00 0.00 79 1016.1
20260901154354 69 303 1.0 1.0 0.00 0.00 0.00 77 1016.1
20260901153849 69 305 1.0 1.0 0.00 0.00 0.00 78 1015.9
20260901153343 68 307 1.0 1.0 0.00 0.00 0.00 78 1015.9
20260901152842 68 302 1.0 2.0 0.00 0.00 0.00 78 1015.9
20260901152343 67 300 2.0 2.0 0.00 0.00 0.00 78 1015.8
20260901151838 67 309 0.0 1.0 0.00 0.00 0.00 78 1015.9
20260901151332 67 312 0.0 0.0 0.00 0.00 0.00 79 1015.8
20260901150826 66 310 0.0 0.0 0.00 0.00 0.00 80 1015.7
20260901150324 66 307 1.0 1.0 0.00 0.00 0.00 81 1015.7
20260901145821 65 309 0.0 1.0 0.00 0.00 0.00 80 1015.6
20260901145321 64 314 0.0 0.0 0.00 0.00 0.00 81 1015.6
20260901144816 64 309 0.0 0.0 0.00 0.00 0.00 84 1015.6
20260901144312 64 309 0.0 0.0 0.00 0.00 0.00 84 1015.8
20260901143803 63 310 0.0 0.0 0.00 0.00 0.00 84 1015.7
20260901143258 62 308 0.0 0.0 0.00 0.00 0.00 85 1015.7
20260901142755 62 300 1.0 1.0 0.00 0.00 0.00 84 1015.7
20260901142253 62 312 0.0 0.0 0.00 0.00 0.00 85 1015.8
20260901141748 62 311 1.0 2.0 0.00 0.00 0.00 85 1016.0
20260901141243 62 304 1.0 2.0 0.00 0.00 0.00 83 1016.3
20260901140742 62 311 0.0 0.0 0.00 0.00 0.00 83 1016.3
20260901140240 62 311 0.0 0.0 0.00 0.00 0.00 83 1016.1
20260901135735 62 313 0.0 0.0 0.00 0.00 0.00 84 1016.2
20260901135229 62 309 1.0 1.0 0.00 0.00 0.00 84 1016.4
20260901134725 62 311 0.0 0.0 0.00 0.00 0.00 82 1016.1
20260901134220 62 311 0.0 0.0 0.00 0.00 0.00 82 1016.5
20260901133720 62 314 0.0 0.0 0.00 0.00 0.00 83 1016.6
20260901133219 61 311 0.0 0.0 0.00 0.00 0.00 83 1016.2
20260901132717 61 300 0.0 1.0 0.00 0.00 0.00 85 1016.1
20260901132212 61 314 0.0 1.0 0.00 0.00 0.00 83 1016.1
20260901131707 61 312 0.0 0.0 0.00 0.00 0.00 83 1016.2
20260901131207 61 311 0.0 0.0 0.00 0.00 0.00 83 1016.1
20260901130702 61 311 0.0 0.0 0.00 0.00 0.00 83 1016.2
20260901130200 61 309 0.0 1.0 0.00 0.00 0.00 83 1016.3
20260901125658 61 313 0.0 0.0 0.00 0.00 0.00 83 1016.5
20260901125153 61 307 0.0 0.0 0.00 0.00 0.00 83 1016.4
20260901124648 61 313 0.0 0.0 0.00 0.00 0.00 83 1016.5
20260901124143 61 310 0.0 0.0 0.00 0.00 0.00 83 1016.5
20260901123638 61 311 0.0 0.0 0.00 0.00 0.00 84 1016.3
20260901123137 61 311 0.0 0.0 0.00 0.00 0.00 85 1016.3
20260901122636 61 311 0.0 0.0 0.00 0.00 0.00 85 1016.2
20260901122131 61 311 0.0 0.0 0.00 0.00 0.00 85 1016.4
20260901121626 60 308 0.0 0.0 0.00 0.00 0.00 86 1016.1
20260901121121 60 310 0.0 0.0 0.00 0.00 0.00 86 1016.3
20260901120621 60 313 0.0 0.0 0.00 0.00 0.00 87 1016.3
20260901120116 60 298 0.0 1.0 0.00 0.00 0.00 88 1016.2
20260901115611 59 313 0.0 0.0 0.00 0.00 0.00 90 1016.1
20260901115108 59 310 0.0 0.0 0.00 0.00 0.00 91 1016.0
20260901114603 59 311 0.0 0.0 0.00 0.00 0.00 93 1016.1
20260901114057 59 311 0.0 0.0 0.00 0.00 0.00 93 1016.1
20260901113556 58 313 0.0 0.0 0.00 0.00 0.00 93 1016.0
20260901113052 58 311 0.0 0.0 0.00 0.00 0.00 94 1016.1
20260901112551 58 311 0.0 0.0 0.00 0.00 0.00 95 1016.0
20260901112046 58 311 0.0 0.0 0.00 0.00 0.00 96 1015.7
20260901111545 58 313 0.0 0.0 0.00 0.00 0.00 96 1015.9
20260901111043 57 310 0.0 0.0 0.00 0.00 0.00 96 1015.7
20260901110539 57 311 0.0 0.0 0.00 0.00 0.00 97 1015.7
20260901110035 57 311 0.0 0.0 0.00 0.00 0.00 98 1015.6
20260901105531 57 311 0.0 0.0 0.00 0.00 0.00 98 1015.6
20260901105024 57 315 0.0 0.0 0.00 0.00 0.00 99 1015.7
20260901104521 57 314 0.0 0.0 0.00 0.00 0.00 99 1015.7
20260901104016 56 317 0.0 0.0 0.00 0.00 0.00 99 1015.5
20260901103510 56 311 0.0 0.0 0.00 0.00 0.00 99 1015.2
20260901103006 56 311 0.0 0.0 0.00 0.00 0.00 99 1015.3
20260901102506 56 316 0.0 0.0 0.00 0.00 0.00 99 1015.3
20260901102000 56 318 1.0 1.0 0.00 0.00 0.00 99 1015.2
20260901101456 56 311 0.0 0.0 0.00 0.00 0.00 99 1015.0
20260901100950 56 314 0.0 0.0 0.00 0.00 0.00 99 1015.1
20260901100444 56 313 0.0 0.0 0.00 0.00 0.00 99 1015.2
20260901095938 56 314 0.0 0.0 0.00 0.00 0.00 99 1015.1
20260901095437 56 312 0.0 0.0 0.00 0.00 0.00 99 1015.4
20260901094935 56 313 0.0 0.0 0.00 0.00 0.00 99 1015.1
20260901094430 56 313 0.0 0.0 0.00 0.00 0.00 99 1015.1
20260901093929 55 313 0.0 0.0 0.00 0.00 0.00 99 1015.2
20260901093424 55 313 0.0 0.0 0.00 0.00 0.00 99 1014.9
20260901092919 55 312 0.0 0.0 0.00 0.00 0.00 99 1015.1
20260901092415 55 311 0.0 0.0 0.00 0.00 0.00 99 1015.3
20260901091910 55 313 0.0 0.0 0.00 0.00 0.00 99 1015.2
20260901091410 55 313 0.0 0.0 0.00 0.00 0.00 99 1015.2
20260901090900 55 313 0.0 0.0 0.00 0.00 0.00 99 1015.4
20260901090400 55 313 0.0 0.0 0.00 0.00 0.00 99 1015.4
20260901085856 55 313 0.0 0.0 0.00 0.00 0.00 99 1015.3
20260901085351 55 314 0.0 0.0 0.00 0.00 0.00 99 1015.3
20260901084848 55 313 0.0 0.0 0.00 0.00 0.00 99 1015.2
20260901084343 55 313 0.0 0.0 0.00 0.00 0.00 99 1015.2
20260901083839 55 313 0.0 0.0 0.00 0.00 0.00 99 1015.3
20260901083338 55 313 0.0 0.0 0.00 0.00 0.00 99 1015.1
20260901082836 55 313 0.0 0.0 0.00 0.00 0.00 99 1015.1
20260901082332 55 313 0.0 0.0 0.00 0.00 0.00 99 1015.2
20260901081827 55 313 0.0 0.0 0.00 0.00 0.00 99 1015.4
20260901081322 55 313 0.0 0.0 0.00 0.00 0.00 99 1015.3
20260901080816 55 313 0.0 0.0 0.00 0.00 0.00 99 1015.2
20260901080316 55 311 0.0 0.0 0.00 0.00 0.00 99 1015.2
20260901075810 55 313 0.0 0.0 0.00 0.00 0.00 99 1015.3
20260901075307 55 313 0.0 0.0 0.00 0.00 0.00 99 1015.4
20260901074800 55 313 0.0 0.0 0.00 0.00 0.00 99 1015.4
20260901074255 55 313 0.0 0.0 0.00 0.00 0.00 99 1015.7
20260901073751 55 313 0.0 0.0 0.00 0.00 0.00 99 1015.5
20260901073246 55 313 0.0 0.0 0.00 0.00 0.00 99 1015.7
20260901072741 55 312 0.0 0.0 0.00 0.00 0.00 99 1015.7
20260901072236 55 314 0.0 0.0 0.00 0.00 0.00 99 1015.7
20260901071730 55 311 0.0 0.0 0.00 0.00 0.00 99 1015.7
20260901071225 55 311 0.0 0.0 0.00 0.00 0.00 99 1015.6
20260901070724 55 311 0.0 0.0 0.00 0.00 0.00 99 1015.7
20260901070214 55 313 0.0 0.0 0.00 0.00 0.00 99 1015.6
20260901065713 56 313 0.0 0.0 0.00 0.00 0.00 99 1015.5
20260901065208 56 313 0.0 0.0 0.00 0.00 0.00 99 1015.5
20260901064705 56 313 0.0 0.0 0.00 0.00 0.00 99 1015.3
20260901064201 56 311 0.0 0.0 0.00 0.00 0.00 99 1015.5
20260901063658 56 311 0.0 0.0 0.00 0.00 0.00 99 1015.5
20260901063153 56 311 0.0 0.0 0.00 0.00 0.00 99 1015.6
20260901062649 56 311 0.0 0.0 0.00 0.00 0.00 99 1015.5
20260901062145 56 311 0.0 0.0 0.00 0.00 0.00 99 1015.6
20260901061641 56 311 0.0 0.0 0.00 0.00 0.00 99 1015.6
20260901061140 56 311 0.0 0.0 0.00 0.00 0.00 99 1015.6
20260901060635 57 311 0.0 0.0 0.00 0.00 0.00 99 1015.8
20260901060131 57 311 0.0 0.0 0.00 0.00 0.00 99 1015.8
20260901055626 57 311 0.0 0.0 0.00 0.00 0.00 99 1015.6
20260901055123 57 311 0.0 0.0 0.00 0.00 0.00 99 1015.6
20260901054619 57 312 0.0 0.0 0.00 0.00 0.00 99 1015.5
20260901054115 57 313 0.0 0.0 0.00 0.00 0.00 99 1015.7
20260901053611 57 313 0.0 0.0 0.00 0.00 0.00 99 1015.7
20260901053107 57 310 0.0 0.0 0.00 0.00 0.00 99 1015.5
20260901052606 58 310 0.0 0.0 0.00 0.00 0.00 99 1015.5
20260901052102 58 310 0.0 0.0 0.00 0.00 0.00 99 1015.5
20260901051556 58 310 0.0 0.0 0.00 0.00 0.00 99 1015.3
20260901051055 57 310 0.0 0.0 0.00 0.00 0.00 99 1015.6
20260901050550 57 310 0.0 0.0 0.00 0.00 0.00 99 1015.6
20260901050045 57 310 0.0 0.0 0.00 0.00 0.00 99 1015.5
20260901045540 57 310 0.0 0.0 0.00 0.00 0.00 99 1015.5
20260901045040 57 310 0.0 0.0 0.00 0.00 0.00 99 1015.5
20260901044536 57 310 0.0 0.0 0.00 0.00 0.00 99 1015.5
20260901044032 57 310 0.0 0.0 0.00 0.00 0.00 99 1015.6
20260901043528 57 310 0.0 0.0 0.00 0.00 0.00 99 1015.5
20260901043023 58 310 0.0 0.0 0.00 0.00 0.00 99 1015.7
20260901042522 58 310 0.0 0.0 0.00 0.00 0.00 99 1015.7
20260901042018 58 310 0.0 0.0 0.00 0.00 0.00 99 1015.8
20260901041513 58 310 0.0 0.0 0.00 0.00 0.00 99 1015.7
20260901041008 58 310 0.0 0.0 0.00 0.00 0.00 99 1015.7
20260901040502 58 310 0.0 0.0 0.00 0.00 0.00 99 1015.8
20260901040002 58 310 0.0 0.0 0.00 0.00 0.00 99 1015.8
20260901035500 58 310 0.0 0.0 0.00 0.00 0.00 99 1015.8
20260901034958 58 310 0.0 0.0 0.00 0.00 0.00 99 1015.9
20260901034459 58 310 0.0 0.0 0.00 0.00 0.00 99 1016.0
20260901033954 58 310 0.0 0.0 0.00 0.00 0.00 99 1015.7
20260901033452 59 310 0.0 0.0 0.00 0.00 0.00 99 1015.9
20260901032951 59 310 0.0 0.0 0.00 0.00 0.00 99 1015.5
20260901032446 59 310 0.0 0.0 0.00 0.00 0.00 99 1015.7
20260901031941 59 310 0.0 0.0 0.00 0.00 0.00 99 1015.9
20260901031437 59 310 0.0 0.0 0.00 0.00 0.00 99 1015.7
20260901030936 58 310 0.0 0.0 0.00 0.00 0.00 98 1015.8
20260901030432 59 310 0.0 0.0 0.00 0.00 0.00 98 1015.9
20260901025931 59 310 0.0 0.0 0.00 0.00 0.00 98 1015.7
20260901025426 59 310 0.0 0.0 0.00 0.00 0.00 98 1015.9
20260901024925 59 309 0.0 0.0 0.00 0.00 0.00 98 1015.9
20260901024420 59 310 0.0 0.0 0.00 0.00 0.00 98 1015.8
20260901023919 59 310 0.0 0.0 0.00 0.00 0.00 97 1015.6
20260901023413 59 310 0.0 0.0 0.00 0.00 0.00 97 1015.8
20260901022908 60 310 0.0 0.0 0.00 0.00 0.00 97 1015.9
20260901022405 60 310 0.0 0.0 0.00 0.00 0.00 96 1015.9
20260901021859 60 310 0.0 0.0 0.00 0.00 0.00 95 1015.8
20260901021355 60 311 0.0 0.0 0.00 0.00 0.00 94 1015.6
20260901020850 61 313 0.0 0.0 0.00 0.00 0.00 93 1016.0
20260901020346 61 313 0.0 0.0 0.00 0.00 0.00 93 1015.7
20260901015844 62 313 0.0 0.0 0.00 0.00 0.00 92 1015.6
20260901015341 62 313 0.0 0.0 0.00 0.00 0.00 92 1015.9
20260901014840 62 313 0.0 0.0 0.00 0.00 0.00 92 1015.8
20260901014337 62 311 0.0 0.0 0.00 0.00 0.00 91 1015.5
20260901013832 62 319 0.0 1.0 0.00 0.00 0.00 91 1015.6
20260901013327 62 313 0.0 0.0 0.00 0.00 0.00 91 1015.6
20260901012823 62 314 0.0 0.0 0.00 0.00 0.00 92 1015.8
20260901012317 62 315 0.0 0.0 0.00 0.00 0.00 92 1015.7
20260901011813 61 311 0.0 0.0 0.00 0.00 0.00 92 1015.8
20260901011309 61 313 0.0 0.0 0.00 0.00 0.00 92 1015.6
20260901010802 61 311 0.0 0.0 0.00 0.00 0.00 92 1015.6
20260901010256 62 311 0.0 0.0 0.00 0.00 0.00 92 1015.8
20260901005755 62 313 0.0 0.0 0.00 0.00 0.00 92 1015.7
20260901005250 62 310 0.0 0.0 0.00 0.00 0.00 92 1015.8
20260901004744 62 311 0.0 0.0 0.00 0.00 0.00 91 1015.7
20260901004239 63 311 0.0 0.0 0.00 0.00 0.00 90 1015.7
20260901003739 63 313 0.0 0.0 0.00 0.00 0.00 90 1015.8
20260901003234 63 311 0.0 0.0 0.00 0.00 0.00 89 1015.8
20260901002732 63 310 0.0 0.0 0.00 0.00 0.00 89 1015.6
20260901002228 63 315 0.0 0.0 0.00 0.00 0.00 89 1015.6
20260901001723 64 311 0.0 0.0 0.00 0.00 0.00 88 1015.5
20260901001219 64 312 1.0 1.0 0.00 0.00 0.00 88 1015.7
20260901000714 64 319 0.0 0.0 0.00 0.00 0.00 88 1015.6
20260901000211 64 320 1.0 1.0 0.00 0.00 0.00 88 1015.7
20260831235702 64 312 0.0 0.0 0.00 0.00 0.00 88 1015.6
20260831235158 64 332 1.0 2.0 0.00 0.00 0.00 87 1015.5
20260831234658 64 311 1.0 2.0 0.00 0.00 0.00 87 1015.5
20260831234153 64 311 2.0 2.0 0.00 0.00 0.00 87 1015.3
20260831233648 64 314 0.0 0.0 0.00 0.00 0.00 87 1015.7
20260831233143 64 300 1.0 1.0 0.00 0.00 0.00 87 1015.7
20260831232638 64 320 0.0 0.0 0.00 0.00 0.00 87 1015.8
20260831232134 64 312 1.0 1.0 0.00 0.00 0.00 87 1015.8
20260831231630 64 316 0.0 0.0 0.00 0.00 0.00 86 1015.9
20260831231125 65 310 1.0 1.0 0.00 0.00 0.00 85 1016.0
20260831230615 65 329 0.0 1.0 0.00 0.00 0.00 84 1015.7
20260831230110 65 339 1.0 1.0 0.00 0.00 0.00 84 1015.9
20260831225604 65 313 2.0 2.0 0.00 0.00 0.00 82 1016.0
20260831225059 66 314 0.0 0.0 0.00 0.00 0.00 81 1015.9
20260831224554 66 318 0.0 0.0 0.00 0.00 0.00 80 1015.8
20260831224050 66 311 0.0 0.0 0.00 0.00 0.00 81 1015.7
20260831223545 66 317 0.0 0.0 0.00 0.00 0.00 81 1016.0
20260831223041 66 310 0.0 0.0 0.00 0.00 0.00 81 1016.0
20260831222537 66 311 0.0 0.0 0.00 0.00 0.00 80 1015.8
20260831222036 66 312 0.0 0.0 0.00 0.00 0.00 79 1015.9
20260831221532 67 315 2.0 3.0 0.00 0.00 0.00 78 1016.0
20260831221027 67 329 0.0 1.0 0.00 0.00 0.00 77 1015.9
20260831220522 67 311 1.0 1.0 0.00 0.00 0.00 76 1015.9
20260831220018 67 312 1.0 1.0 0.00 0.00 0.00 75 1015.8
20260831215513 67 327 0.0 0.0 0.00 0.00 0.00 75 1015.8
20260831215009 67 340 2.0 3.0 0.00 0.00 0.00 74 1015.9
20260831214507 67 310 1.0 1.0 0.00 0.00 0.00 74 1015.9
20260831214002 68 304 1.0 1.0 0.00 0.00 0.00 71 1015.9
20260831213459 67 316 0.0 1.0 0.00 0.00 0.00 69 1016.0
20260831212958 68 312 0.0 0.0 0.00 0.00 0.00 71 1016.0
20260831212454 68 313 0.0 0.0 0.00 0.00 0.00 71 1016.1
20260831211949 68 331 1.0 1.0 0.00 0.00 0.00 69 1016.1
20260831211444 68 317 0.0 1.0 0.00 0.00 0.00 68 1016.0
20260831210943 67 304 0.0 0.0 0.00 0.00 0.00 70 1016.1
20260831210439 68 305 1.0 1.0 0.00 0.00 0.00 69 1016.1
20260831205934 68 306 2.0 2.0 0.00 0.00 0.00 67 1016.4
20260831205430 68 301 0.0 1.0 0.00 0.00 0.00 63 1016.2
20260831204925 68 308 1.0 2.0 0.00 0.00 0.00 60 1016.2
20260831204425 68 304 1.0 2.0 0.00 0.00 0.00 62 1016.3
20260831203924 69 278 1.0 2.0 0.00 0.00 0.00 61 1016.5
20260831203418 69 316 1.0 1.0 0.00 0.00 0.00 62 1016.5
20260831202916 69 312 0.0 1.0 0.00 0.00 0.00 63 1016.2
20260831202412 69 328 1.0 1.0 0.00 0.00 0.00 61 1016.2
20260831201906 69 33 2.0 3.0 0.00 0.00 0.00 60 1016.3
20260831201404 69 310 0.0 0.0 0.00 0.00 0.00 59 1016.3
20260831200901 68 330 1.0 1.0 0.00 0.00 0.00 58 1016.3
20260831200355 69 303 0.0 0.0 0.00 0.00 0.00 61 1016.2
20260831195850 69 303 1.0 1.0 0.00 0.00 0.00 62 1016.2
20260831195346 69 301 2.0 2.0 0.00 0.00 0.00 62 1016.4
20260831194842 69 308 1.0 2.0 0.00 0.00 0.00 62 1016.4
20260831194337 69 319 2.0 3.0 0.00 0.00 0.00 64 1016.5
20260831193836 69 311 2.0 2.0 0.00 0.00 0.00 63 1016.6
20260831193331 69 326 2.0 2.0 0.00 0.00 0.00 60 1016.7
20260831192826 69 303 1.0 2.0 0.00 0.00 0.00 59 1016.9